FW0878 Weather Reports


Display with metric or nautical units.
time (UTC)temp
F
wind
direction
speed
MPH
gust
MPH
rain 1hr
in
rain 24hr
in
rain mn
in
humidity
%
barometer
mb
20260506170807 44 290 3.0 8.0 0.00 0.11 0.11 80 1019.7
20260506170307 44 289 2.0 7.0 0.00 0.11 0.11 79 1019.4
20260506165807 44 292 2.0 9.0 0.00 0.11 0.11 79 1019.3
20260506165308 44 265 3.0 10.0 0.00 0.11 0.11 78 1019.6
20260506164807 44 269 5.0 10.0 0.00 0.11 0.11 78 1019.3
20260506164307 44 203 5.0 10.0 0.00 0.11 0.11 78 1019.2
20260506163807 44 334 3.0 9.0 0.00 0.11 0.11 78 1019.2
20260506163307 44 272 3.0 9.0 0.00 0.11 0.11 79 1019.0
20260506162807 44 227 4.0 8.0 0.00 0.11 0.11 79 1019.4
20260506162307 44 228 2.0 5.0 0.00 0.11 0.11 80 1019.3
20260506161809 44 291 2.0 9.0 0.00 0.11 0.11 79 1019.2
20260506161307 44 87 1.0 5.0 0.00 0.11 0.11 79 1019.3
20260506160807 44 270 2.0 7.0 0.00 0.11 0.11 78 1018.9
20260506160307 44 273 2.0 6.0 0.00 0.11 0.11 78 1019.1
20260506155807 45 206 2.0 8.0 0.00 0.11 0.11 77 1018.9
20260506155307 45 249 4.0 10.0 0.00 0.11 0.11 75 1019.1
20260506154808 45 268 4.0 10.0 0.00 0.11 0.11 75 1019.1
20260506154308 45 205 5.0 12.0 0.00 0.11 0.11 75 1019.2
20260506153807 45 250 3.0 12.0 0.00 0.11 0.11 75 1019.3
20260506152808 45 292 4.0 12.0 0.00 0.11 0.11 75 1019.1
20260506151806 45 246 3.0 10.0 0.00 0.11 0.11 75 1019.3
20260506151307 45 270 2.0 8.0 0.00 0.11 0.11 76 1019.2
20260506150808 45 221 3.0 8.0 0.00 0.11 0.11 76 1019.1
20260506150307 45 266 4.0 8.0 0.00 0.11 0.11 78 1019.2
20260506145807 45 289 5.0 12.0 0.00 0.11 0.11 79 1019.1
20260506145307 45 270 3.0 10.0 0.00 0.11 0.11 80 1019.3
20260506144807 45 202 4.0 10.0 0.00 0.11 0.11 80 1019.1
20260506143808 46 225 6.0 12.0 0.00 0.11 0.11 80 1019.2
20260506143307 47 43 7.0 15.0 0.00 0.11 0.11 77 1019.1
20260506142807 47 203 3.0 8.0 0.00 0.11 0.11 72 1019.2
20260506142308 47 270 2.0 9.0 0.00 0.11 0.11 71 1019.1
20260506141807 47 249 3.0 9.0 0.00 0.11 0.11 71 1019.0
20260506135807 47 269 2.0 7.0 0.00 0.11 0.11 71 1018.9
20260506135307 47 291 3.0 8.0 0.00 0.11 0.11 70 1018.9
20260506134806 47 270 3.0 7.0 0.00 0.11 0.11 70 1018.6
20260506134307 47 269 2.0 10.0 0.00 0.11 0.11 69 1018.7
20260506133807 47 271 4.0 8.0 0.00 0.11 0.11 69 1018.6
20260506133306 47 269 3.0 9.0 0.00 0.11 0.11 69 1018.5
20260506132807 47 246 4.0 13.0 0.00 0.11 0.11 69 1018.6
20260506131806 47 225 5.0 13.0 0.00 0.11 0.11 70 1018.8
20260506131307 48 273 5.0 10.0 0.00 0.11 0.11 71 1018.7
20260506130807 48 225 7.0 12.0 0.00 0.11 0.11 71 1018.5
20260506130307 48 246 8.0 15.0 0.00 0.11 0.11 71 1018.3
20260506125807 48 208 6.0 14.0 0.00 0.11 0.11 73 1018.2
20260506125307 49 246 5.0 12.0 0.00 0.11 0.11 73 1018.1
20260506124807 49 227 5.0 13.0 0.00 0.11 0.11 72 1018.0
20260506123807 49 167 3.0 9.0 0.00 0.11 0.11 72 1018.1
20260506123308 50 248 4.0 15.0 0.00 0.11 0.11 72 1018.4
20260506122808 50 251 6.0 15.0 0.00 0.11 0.11 70 1018.4
20260506120808 50 291 4.0 9.0 0.00 0.11 0.11 77 1018.2
20260506115308 50 353 3.0 7.0 0.00 0.11 0.11 79 1018.2
20260506114807 50 268 2.0 7.0 0.00 0.11 0.11 79 1018.2
20260506114307 50 182 2.0 7.0 0.00 0.11 0.11 79 1018.1
20260506113807 50 251 3.0 9.0 0.00 0.11 0.11 79 1018.0
20260506113308 50 207 3.0 8.0 0.00 0.11 0.11 79 1018.1
20260506112807 50 249 5.0 8.0 0.00 0.11 0.11 79 1018.1
20260506112307 50 289 3.0 12.0 0.00 0.11 0.11 79 1017.8
20260506111806 50 270 4.0 12.0 0.00 0.11 0.11 80 1017.9
20260506111306 50 270 3.0 14.0 0.00 0.11 0.11 80 1018.0
20260506110307 50 230 6.0 13.0 0.00 0.11 0.11 80 1017.6
20260506105807 50 290 6.0 14.0 0.00 0.11 0.11 80 1017.7
20260506105307 50 228 6.0 12.0 0.00 0.11 0.11 81 1018.0
20260506104808 51 250 3.0 13.0 0.00 0.11 0.11 81 1017.9
20260506104308 51 162 6.0 14.0 0.00 0.11 0.11 81 1017.9
20260506102808 51 287 6.0 14.0 0.00 0.11 0.11 83 1017.7
20260506101806 51 248 7.0 18.0 0.01 0.11 0.11 85 1017.5
20260506101307 52 205 7.0 14.0 0.01 0.11 0.11 88 1017.7
20260506095807 52 204 5.0 14.0 0.02 0.11 0.11 91 1016.9
20260506095307 53 250 6.0 14.0 0.02 0.11 0.11 91 1017.0
20260506094807 53 247 3.0 10.0 0.02 0.11 0.11 91 1016.8
20260506094307 53 251 5.0 10.0 0.02 0.11 0.11 91 1016.9
20260506093807 53 270 3.0 10.0 0.02 0.11 0.11 91 1016.9
20260506093307 53 250 6.0 10.0 0.02 0.11 0.11 90 1016.8
20260506092807 53 265 5.0 17.0 0.02 0.11 0.11 90 1016.7
20260506091808 54 267 6.0 13.0 0.01 0.10 0.10 87 1016.6
20260506091307 54 289 6.0 15.0 0.01 0.10 0.10 87 1016.8
20260506090807 54 227 5.0 12.0 0.01 0.10 0.10 87 1016.2
20260506090307 55 268 6.0 12.0 0.01 0.10 0.10 87 1016.1
20260506085807 55 246 4.0 10.0 0.00 0.09 0.09 87 1016.2
20260506085308 56 243 6.0 13.0 0.00 0.09 0.09 86 1016.0
20260506084807 57 273 3.0 6.0 0.00 0.09 0.09 88 1015.8
20260506084307 56 337 1.0 3.0 0.01 0.09 0.09 88 1015.2
20260506083807 57 180 1.0 2.0 0.04 0.09 0.09 88 1015.1
20260506083307 57 20 1.0 3.0 0.08 0.09 0.09 88 1015.1
20260506082807 57 82 1.0 5.0 0.09 0.09 0.09 89 1015.2
20260506082307 57 225 1.0 5.0 0.09 0.09 0.09 89 1015.1
20260506081808 57 338 1.0 5.0 0.09 0.09 0.09 89 1015.0
20260506081307 57 333 1.0 5.0 0.09 0.09 0.09 89 1015.1
20260506080807 57 318 1.0 5.0 0.09 0.09 0.09 89 1014.9
20260506080307 57 88 1.0 5.0 0.09 0.09 0.09 89 1014.9
20260506073307 60 245 3.0 10.0 0.02 0.02 0.02 80 1015.0
20260506072807 62 290 3.0 7.0 0.00 0.00 0.00 71 1015.1
20260506071806 63 297 3.0 13.0 0.00 0.00 0.00 63 1014.2
20260506071307 63 333 3.0 6.0 0.00 0.00 0.00 62 1014.3
20260506070806 63 40 2.0 12.0 0.00 0.00 0.00 62 1014.3
20260506070307 64 4 2.0 12.0 0.00 0.00 0.00 61 1014.3
20260506062306 65 315 3.0 8.0 0.00 0.00 0.00 55 1014.6
20260506061807 66 338 2.0 9.0 0.00 0.00 0.00 55 1014.7
20260506061307 65 292 2.0 7.0 0.00 0.00 0.00 55 1014.6
20260506060807 65 315 1.0 7.0 0.00 0.00 0.00 55 1014.8
20260506051307 68 24 4.0 8.0 0.00 0.00 0.00 49 1015.0
20260506050807 68 271 3.0 12.0 0.00 0.00 0.00 50 1015.2
20260506050306 67 226 3.0 12.0 0.00 0.00 0.00 51 1015.2
20260506044308 66 292 2.0 6.0 0.00 0.00 0.00 52 1015.6
20260506043807 67 338 1.0 6.0 0.00 0.00 0.00 51 1015.6
20260506043306 67 234 2.0 6.0 0.00 0.00 0.00 51 1015.7
20260506042807 67 338 2.0 7.0 0.00 0.00 0.00 50 1015.8
20260506042307 68 20 2.0 7.0 0.00 0.00 0.00 49 1016.1
20260506040807 67 311 2.0 5.0 0.00 0.00 0.00 50 1015.9
20260506040307 68 25 1.0 6.0 0.00 0.00 0.00 49 1016.1
20260506035807 69 0 2.0 6.0 0.00 0.00 0.00 47 1016.2
20260506035307 68 247 2.0 8.0 0.00 0.00 0.00 48 1016.3
20260506034807 67 336 2.0 7.0 0.00 0.00 0.00 49 1016.2
20260506034307 66 247 2.0 6.0 0.00 0.00 0.00 51 1016.5
20260506033807 66 295 2.0 5.0 0.00 0.00 0.00 51 1016.6
20260506033307 65 293 2.0 6.0 0.00 0.00 0.00 52 1016.7
20260506032807 65 5 2.0 9.0 0.00 0.00 0.00 52 1016.9
20260506032307 66 224 3.0 6.0 0.00 0.00 0.00 51 1017.1
20260506031807 66 292 2.0 3.0 0.00 0.00 0.00 50 1016.9
20260506031307 66 357 1.0 7.0 0.00 0.00 0.00 50 1017.0
20260506030807 67 268 2.0 9.0 0.00 0.00 0.00 50 1017.2
20260506030307 67 336 3.0 7.0 0.00 0.00 0.00 49 1017.1
20260506025808 67 89 3.0 7.0 0.00 0.00 0.00 49 1017.2
20260506025308 67 338 2.0 7.0 0.00 0.00 0.00 49 1017.4
20260506024807 68 157 3.0 8.0 0.00 0.00 0.00 48 1017.5
20260506024307 68 54 3.0 8.0 0.00 0.00 0.00 48 1017.5
20260506023807 66 20 3.0 6.0 0.00 0.00 0.00 50 1017.6
20260506023307 66 249 2.0 6.0 0.00 0.00 0.00 50 1017.7
20260506022806 66 252 3.0 7.0 0.00 0.00 0.00 50 1018.0
20260506022307 67 161 3.0 6.0 0.00 0.00 0.00 49 1018.1
20260506021807 67 179 3.0 8.0 0.00 0.00 0.00 49 1018.3
20260506021307 67 62 2.0 8.0 0.00 0.00 0.00 49 1018.3
20260506020808 66 24 2.0 5.0 0.00 0.00 0.00 50 1018.4
20260506015806 65 230 3.0 6.0 0.00 0.00 0.00 51 1018.6
20260506015308 66 359 3.0 8.0 0.00 0.00 0.00 50 1018.7
20260506014807 65 228 2.0 9.0 0.00 0.00 0.00 51 1018.9
20260506014307 65 206 3.0 8.0 0.00 0.00 0.00 52 1018.9
20260506013807 65 202 3.0 8.0 0.00 0.00 0.00 52 1019.1
20260506013306 64 90 3.0 8.0 0.00 0.00 0.00 54 1019.1
20260506012807 64 205 2.0 6.0 0.00 0.00 0.00 54 1019.4
20260506011807 63 315 2.0 7.0 0.00 0.00 0.00 55 1019.4
20260506011306 63 272 3.0 7.0 0.00 0.00 0.00 55 1019.5
20260506010307 63 337 1.0 7.0 0.00 0.00 0.00 56 1019.8
20260506005807 63 314 3.0 7.0 0.00 0.00 0.00 56 1019.8
20260506005307 63 0 2.0 6.0 0.00 0.00 0.00 55 1019.9
20260506004807 64 251 3.0 6.0 0.00 0.00 0.00 54 1019.8
20260506003807 65 338 2.0 8.0 0.00 0.00 0.00 53 1020.1
20260506003308 65 338 3.0 6.0 0.00 0.00 0.00 52 1020.0
20260506002307 64 138 2.0 6.0 0.00 0.00 0.00 53 1020.2
20260506001807 64 333 2.0 7.0 0.00 0.00 0.00 53 1020.2
20260506001307 63 20 2.0 6.0 0.00 0.00 0.00 54 1020.4
20260506000807 62 205 1.0 5.0 0.00 0.00 0.00 56 1020.2
20260506000309 62 161 1.0 7.0 0.00 0.00 0.00 56 1020.2
20260505235807 63 337 2.0 7.0 0.00 0.00 0.00 56 1020.4
20260505234807 62 225 1.0 3.0 0.00 0.00 0.00 57 1020.2
20260505234307 62 309 1.0 6.0 0.00 0.00 0.00 58 1020.2
20260505233808 62 338 1.0 3.0 0.00 0.00 0.00 56 1020.3
20260505233307 63 228 2.0 6.0 0.00 0.00 0.00 56 1020.5
20260505232807 63 133 1.0 5.0 0.00 0.00 0.00 55 1020.5
20260505232307 63 338 1.0 3.0 0.00 0.00 0.00 56 1020.5
20260505231806 62 342 1.0 3.0 0.00 0.00 0.00 56 1020.7
20260505231308 62 336 1.0 3.0 0.00 0.00 0.00 57 1020.6
20260505230807 61 317 1.0 5.0 0.00 0.00 0.00 59 1020.7
20260505225807 60 338 1.0 3.0 0.00 0.00 0.00 61 1020.7
20260505224807 59 0 1.0 3.0 0.00 0.00 0.00 63 1020.8
20260505224307 58 272 1.0 2.0 0.00 0.00 0.00 66 1020.9
20260505223807 57 338 1.0 2.0 0.00 0.00 0.00 67 1020.9
20260505223308 56 21 1.0 2.0 0.00 0.01 0.00 69 1020.8
20260505222807 55 21 1.0 2.0 0.00 0.01 0.00 71 1020.8
20260505222308 54 339 0.0 1.0 0.00 0.01 0.00 74 1020.7
20260505221807 53 315 0.0 1.0 0.00 0.01 0.00 77 1020.8
20260505221307 51 340 0.0 1.0 0.00 0.01 0.00 80 1020.9
20260505220808 50 0 0.0 1.0 0.00 0.01 0.00 81 1020.9
20260505220307 49 338 0.0 1.0 0.00 0.01 0.00 82 1021.0
20260505215807 48 338 0.0 1.0 0.00 0.01 0.00 82 1020.9
20260505215308 48 338 0.0 1.0 0.00 0.01 0.00 81 1021.0
20260505214807 48 315 0.0 1.0 0.00 0.01 0.00 81 1020.7
20260505214307 48 315 0.0 1.0 0.00 0.01 0.00 81 1020.8
20260505213808 48 272 0.0 1.0 0.00 0.01 0.00 81 1020.9
20260505213307 49 271 0.0 1.0 0.00 0.01 0.00 80 1020.7
20260505212307 49 316 0.0 1.0 0.00 0.01 0.00 80 1020.8
20260505211808 49 337 0.0 2.0 0.00 0.01 0.00 80 1020.8
20260505211307 49 316 1.0 2.0 0.00 0.01 0.00 80 1020.9
20260505210307 49 0 1.0 2.0 0.00 0.01 0.00 80 1020.7
20260505205807 49 313 1.0 2.0 0.00 0.01 0.00 80 1020.7
20260505205307 49 275 1.0 2.0 0.00 0.01 0.00 80 1020.8
20260505204308 49 43 1.0 1.0 0.00 0.01 0.00 79 1020.9
20260505203806 49 316 0.0 1.0 0.00 0.01 0.00 78 1020.9
20260505202807 50 316 0.0 1.0 0.00 0.01 0.00 77 1020.9
20260505202307 51 19 1.0 1.0 0.00 0.01 0.00 77 1021.1
20260505201806 51 20 0.0 1.0 0.00 0.01 0.00 76 1021.0
20260505201307 51 315 0.0 1.0 0.00 0.01 0.00 76 1021.0
20260505200808 51 338 1.0 1.0 0.00 0.01 0.00 75 1021.1
20260505200307 52 292 0.0 1.0 0.00 0.01 0.00 75 1020.9
20260505195807 52 269 0.0 1.0 0.00 0.01 0.00 74 1020.9
20260505195307 53 293 0.0 1.0 0.00 0.01 0.00 74 1021.0
20260505194807 53 292 0.0 1.0 0.00 0.01 0.00 73 1020.9
20260505194308 53 314 0.0 1.0 0.00 0.01 0.00 73 1020.8
20260505193807 54 317 0.0 1.0 0.00 0.01 0.00 73 1020.7
20260505192808 54 65 0.0 1.0 0.00 0.01 0.00 73 1020.9
20260505192307 54 227 1.0 2.0 0.00 0.01 0.00 73 1021.0
20260505191806 54 358 1.0 2.0 0.00 0.01 0.00 73 1021.0
20260505191307 54 357 0.0 1.0 0.00 0.01 0.00 73 1020.8
20260505190807 54 315 0.0 2.0 0.00 0.01 0.00 73 1021.0
20260505190307 54 337 0.0 1.0 0.00 0.01 0.00 74 1020.8
20260505185307 54 294 0.0 1.0 0.00 0.01 0.00 74 1020.8
20260505184807 54 337 1.0 1.0 0.00 0.01 0.00 74 1020.9
20260505184307 54 316 0.0 1.0 0.00 0.01 0.00 74 1020.8
20260505183308 54 338 0.0 1.0 0.00 0.01 0.00 74 1020.8
20260505182808 54 338 1.0 1.0 0.00 0.01 0.00 74 1020.9
20260505182307 54 340 0.0 1.0 0.00 0.01 0.00 75 1020.9
20260505181807 54 292 0.0 0.0 0.00 0.01 0.00 75 1020.9
20260505181308 54 272 0.0 0.0 0.00 0.01 0.00 75 1021.0
20260505180307 54 315 0.0 1.0 0.00 0.01 0.00 75 1020.8
20260505175807 54 313 0.0 1.0 0.00 0.01 0.00 75 1020.9
20260505175306 54 293 0.0 0.0 0.00 0.01 0.00 75 1021.0
20260505174808 54 316 0.0 1.0 0.00 0.01 0.00 76 1020.8
20260505174307 53 293 0.0 0.0 0.00 0.01 0.00 76 1021.0
20260505173807 53 337 0.0 0.0 0.00 0.01 0.00 77 1021.0
20260505172806 53 292 0.0 0.0 0.00 0.01 0.00 78 1021.2
20260505171307 52 338 0.0 0.0 0.00 0.01 0.00 78 1021.3